MZ017 OPRN-OPIS

Flight info

Callsign MZ017
Flight time N/A
Altitude 7000
Route VFR / LOW ALTITUDE / SIGHT SEEING
Aircraft UH1/L-SDE2E3FGHIJ4J5M1RWXYZ/L

Departure

Time 2026-04-30 19:14
Airport PAF Base Nur Khan (Benazir Bhutto International Airport) (OPRN)

Arrival

Time N/A
Airport Islamabad International Airport (OPIS)
Time Latitude Longitude Altitude Speed Heading
2026-04-30 19:14 33.68735 73.08199 3048 ft 78 kts 347°
2026-04-30 19:14 33.69184 73.08486 2925 ft 75 kts 32°
2026-04-30 19:15 33.69382 73.08731 2998 ft 76 kts 41°
2026-04-30 19:15 33.69674 73.09375 3196 ft 73 kts 57°
2026-04-30 19:15 33.69942 73.09994 3134 ft 93 kts 46°
2026-04-30 19:16 33.70407 73.10440 3320 ft 78 kts 27°
2026-04-30 19:16 33.70934 73.10557 3500 ft 78 kts 347°
2026-04-30 19:16 33.71641 73.09699 3860 ft 82 kts 318°
2026-04-30 19:17 33.72207 73.09314 3780 ft 102 kts 333°
2026-04-30 19:17 33.72990 73.08318 4180 ft 85 kts 268°
2026-04-30 19:17 33.72685 73.07645 4096 ft 101 kts 211°
2026-04-30 19:18 33.71636 73.07458 4196 ft 103 kts 171°
2026-04-30 19:18 33.70631 73.07543 4113 ft 116 kts 172°
2026-04-30 19:18 33.69864 73.07616 4104 ft 106 kts 165°
2026-04-30 19:19 33.69450 73.08235 4094 ft 105 kts 90°
2026-04-30 19:19 33.69642 73.09064 3923 ft 103 kts 50°
2026-04-30 19:19 33.70778 73.09992 3535 ft 98 kts
2026-04-30 19:20 33.71410 73.10159 3386 ft 82 kts 358°
2026-04-30 19:20 33.71932 73.10235 3215 ft 73 kts 354°
2026-04-30 19:20 33.72944 73.10249 2541 ft 57 kts 342°
2026-04-30 19:21 33.73135 73.10182 2197 ft 8 kts 189°
2026-04-30 19:21 33.73132 73.10106 2122 ft 10 kts 216°
2026-04-30 19:22 33.73100 73.10031 1928 ft 2 kts 218°
2026-04-30 19:22 33.73099 73.10028 1928 ft 0 kts 208°
2026-04-30 19:23 33.72171 73.09177 2355 ft 88 kts 217°
2026-04-30 19:24 33.71271 73.08241 2457 ft 85 kts 203°
2026-04-30 19:24 33.70750 73.07957 2644 ft 76 kts 190°
2026-04-30 19:24 33.70144 73.08892 2851 ft 94 kts 84°
2026-04-30 19:25 33.69689 73.11201 2807 ft 95 kts 150°
2026-04-30 19:26 33.68564 73.10680 2575 ft 87 kts 223°
2026-04-30 19:26 33.67812 73.09644 2284 ft 76 kts 210°
2026-04-30 19:26 33.67409 73.09328 2217 ft 64 kts 206°
2026-04-30 19:27 33.66679 73.08965 2202 ft 43 kts 188°
2026-04-30 19:27 33.65953 73.09149 2177 ft 81 kts 156°
2026-04-30 19:28 33.65414 73.09484 2182 ft 93 kts 146°
2026-04-30 19:28 33.64232 73.10268 2207 ft 96 kts 147°
2026-04-30 19:29 33.63151 73.11044 2276 ft 87 kts 142°
2026-04-30 19:29 33.62631 73.11423 2326 ft 87 kts 143°
2026-04-30 19:30 33.61050 73.12617 2437 ft 92 kts 142°
2026-04-30 19:30 33.61141 73.13286 2316 ft 68 kts 321°
2026-04-30 19:31 33.61184 73.12175 2138 ft 76 kts 270°
2026-04-30 19:31 33.61257 73.11565 2057 ft 71 kts 272°
2026-04-30 19:31 33.61314 73.10802 1879 ft 26 kts 292°
2026-04-30 19:32 33.61331 73.10562 1878 ft 39 kts 292°
2026-04-30 19:32 33.61336 73.10191 1894 ft 47 kts 278°
2026-04-30 19:32 33.61330 73.09897 1839 ft 18 kts 293°
2026-04-30 19:32 33.61318 73.09825 1695 ft 2 kts 318°
2026-04-30 19:33 33.61317 73.09822 1683 ft 1 kts 337°
2026-04-30 19:33 33.61318 73.09822 1675 ft 0 kts 330°